Simultaneous Nadir Overpasses (SNOs) Predictions

Prediction of SNOs between GOES-16 and METOP-B Satellite Orbit:

Table of predicted SNOs for the next 14.0 days since TLE Epoch: 6/29/2019
Index Date Time (GOES-16) GOES-16 Lat,Lon METOP-B Lat,Lon Distance(km) Time Diff (sec)
1 06/29/2019 14:20:40 0.01, -75.20 -0.45, -73.18 231.04 80
2 07/01/2019 02:42:20 -0.01, -75.20 -0.57, -77.77 293.29 80
3 07/02/2019 02:19:01 -0.00, -75.20 0.54, -72.78 275.83 80
4 07/03/2019 14:40:33 -0.00, -75.21 0.47, -77.34 243.00 80
5 07/04/2019 14:17:14 -0.01, -75.21 -0.63, -72.34 326.18 80
6 07/06/2019 02:38:54 0.02, -75.21 -0.38, -76.94 197.83 80
7 07/07/2019 02:15:34 0.03, -75.21 0.73, -71.95 371.85 80
8 07/08/2019 14:37:07 -0.03, -75.24 0.28, -76.51 145.77 80
9 07/09/2019 14:13:48 -0.03, -75.25 -0.89, -71.53 424.50 80
10 07/11/2019 02:35:28 0.03, -75.26 -0.18, -76.11 97.89 80
11 07/12/2019 02:12:08 0.03, -75.27 0.93, -71.12 472.76 80




NCC Satellite Simultaneous Nadir Overpasses (SNOs) Prediction Service
